Theta_e
318 318 319 319 319 321 321 319 320 321 321 320 319 319 320 319 319 320 320 322 323 323 322 319 319 318 319 318 316 319 315 297 296 295 295 298 315 321 322 322 323 322 318 296 294 292 290 291 292 291 292 291 288 289 288 290 287 286 281 278 278 278 278 281 281 281 283 283 283 284 284 284 283 285 287 288 286 285 285 286 287 288 291 291 290 291 290 288
318 318 318 319 320 320 320 321 322 322 321 320 320 322 321 319 320 320 320 321 322 324 323 319 316 318 317 318 319 314 297 297 294 294 294 308 318 321 323 321 322 320 309 295 291 288 290 289 288 292 288 287 289 287 288 286 287 282 277 279 278 277 282 283 283 283 283 283 284 283 284 285 285 284 288 285 285 284 285 285 286 286 287 289 290 289 288 287
318 318 318 318 319 320 320 320 320 321 321 321 321 321 320 321 320 320 320 321 322 323 322 318 316 318 317 314 316 314 300 293 295 291 294 314 317 320 322 321 321 318 296 293 291 291 290 289 288 292 288 287 288 285 288 286 286 280 280 279 279 280 284 283 283 285 283 284 285 285 284 285 286 286 287 285 283 282 284 285 285 285 287 288 288 287 287 286
317 317 317 318 318 319 318 318 319 319 319 320 320 321 321 321 321 320 321 322 322 322 322 316 316 319 319 317 317 297 295 291 290 290 296 315 318 318 319 320 319 311 297 294 292 290 289 290 290 290 286 287 284 286 286 287 283 283 281 276 282 282 281 285 283 284 284 284 284 283 284 284 285 285 285 284 283 281 283 284 285 285 286 287 287 285 285 284
317 317 317 317 318 317 317 317 317 317 318 319 320 321 321 322 322 322 322 322 322 321 322 322 318 315 317 315 309 296 292 286 286 292 299 314 318 319 317 319 316 305 297 296 296 294 293 290 291 288 285 282 283 283 283 285 284 282 280 282 284 281 282 285 284 284 283 282 282 281 284 285 286 286 283 284 282 282 285 287 287 286 286 286 286 284 284 283
316 316 317 317 317 317 317 317 317 317 318 318 319 320 322 322 322 323 322 323 320 319 319 322 322 314 313 311 297 296 291 277 289 294 313 314 315 315 315 317 312 304 299 299 294 293 294 292 292 284 284 284 283 283 284 284 285 282 281 282 282 282 283 283 285 284 284 283 283 283 285 286 284 285 283 285 284 286 288 287 286 286 286 284 285 283 283 283
316 316 316 316 317 317 317 319 318 319 320 320 320 320 321 322 322 323 322 323 320 318 317 318 319 319 318 311 297 296 290 286 290 297 309 314 313 310 313 312 306 299 300 297 295 294 292 292 291 284 284 287 285 285 285 286 287 285 281 282 284 284 284 283 285 282 280 284 285 284 286 286 284 284 285 284 285 286 286 286 286 285 285 283 283 283 282 282
316 315 315 316 316 316 317 318 318 318 320 321 321 321 321 322 322 323 322 323 322 319 317 317 318 318 317 293 291 289 289 286 293 295 307 310 302 300 306 300 299 299 297 294 293 292 289 289 288 286 286 284 284 284 285 286 285 284 283 283 285 284 283 282 283 281 283 284 283 285 285 284 284 286 284 285 284 284 287 285 283 282 282 283 283 283 282 282
316 316 315 316 315 317 317 317 318 319 319 321 320 320 319 321 321 322 322 321 322 322 318 316 317 315 312 293 289 291 286 292 294 295 297 296 295 296 300 298 298 297 294 296 295 294 293 287 287 286 284 282 284 284 285 283 284 284 284 283 283 283 283 283 283 282 282 283 283 285 283 282 284 284 285 285 286 286 285 284 282 282 283 282 282 282 282 282
315 315 315 315 315 316 316 316 318 319 319 320 321 320 320 320 321 321 319 319 321 322 321 317 315 315 300 291 291 287 289 293 295 295 296 296 294 298 298 297 297 296 296 294 296 295 292 290 293 291 290 286 285 284 284 286 284 283 283 282 283 283 285 285 283 284 283 284 283 284 283 282 284 285 281 284 285 286 284 282 281 282 283 283 283 282 282 281
316 315 315 315 314 314 315 316 318 319 320 321 321 319 319 320 319 319 319 318 320 322 319 318 315 307 296 296 290 286 293 296 294 296 296 295 295 296 295 296 296 294 294 294 293 292 293 292 291 291 290 287 288 286 285 284 284 283 283 284 284 282 285 284 284 285 285 285 282 284 283 284 283 284 283 284 285 285 284 282 281 281 282 283 283 282 282 281
315 315 315 315 315 314 315 316 318 319 321 321 320 320 319 318 318 318 319 319 320 321 318 316 309 296 294 294 290 288 295 296 294 295 296 295 294 293 295 295 295 294 294 293 293 293 293 293 292 290 286 289 284 285 286 285 286 284 285 283 281 279 281 283 283 285 283 285 284 283 282 279 279 283 284 284 285 282 281 283 281 282 282 282 283 283 282 281
315 315 314 315 315 314 315 316 318 319 319 319 318 317 318 318 318 318 320 317 318 319 318 313 304 295 293 290 288 296 293 293 295 295 297 297 295 294 293 295 295 295 294 293 291 293 293 293 295 291 288 284 283 283 286 286 283 284 283 280 278 278 277 283 284 285 284 285 283 283 276 277 276 279 281 284 284 284 285 283 282 281 281 282 282 283 282 282
315 315 315 315 315 315 315 316 318 319 318 316 315 316 317 317 317 318 319 317 316 320 319 313 298 297 294 283 294 295 295 296 295 296 295 297 296 295 295 296 296 295 294 293 292 292 293 293 293 290 289 287 286 289 286 281 283 282 281 279 277 276 278 282 283 284 284 284 284 283 278 278 280 282 282 284 284 285 283 283 283 281 282 282 283 283 282 282
315 315 315 315 315 315 315 316 317 319 317 315 314 314 315 316 316 316 318 314 315 315 317 309 295 288 287 288 293 297 311 295 297 293 294 295 293 293 295 294 294 294 293 294 293 293 293 292 292 287 284 287 286 283 278 278 279 279 278 277 276 278 278 281 282 282 281 283 283 281 276 279 281 281 282 284 284 284 284 283 282 281 282 282 283 284 283 283
315 315 315 315 315 315 314 316 317 318 318 318 317 315 313 314 316 317 315 317 314 312 301 296 294 293 290 288 294 304 292 293 294 294 292 294 292 292 293 293 292 294 293 293 294 292 292 292 288 285 284 284 282 277 278 278 277 279 279 276 276 277 278 276 280 281 283 282 281 284 279 279 280 282 285 284 283 283 283 281 280 281 282 283 284 284 283 282
314 314 314 315 315 315 315 315 316 316 316 317 317 316 315 313 314 316 313 307 299 301 302 294 290 292 290 292 296 292 288 291 292 293 294 294 292 292 292 292 290 291 291 293 294 293 291 287 285 285 283 282 280 280 277 277 276 276 278 277 277 277 277 276 280 279 283 282 280 280 279 280 281 283 283 283 282 283 283 282 282 282 282 283 283 283 281 280
313 314 314 314 315 315 315 314 314 314 315 317 317 319 307 316 311 309 306 301 294 295 294 296 288 289 287 294 288 291 292 289 294 292 291 294 292 292 291 291 288 290 289 290 291 290 287 284 285 283 280 281 281 280 280 274 276 277 276 276 276 277 277 277 276 280 282 281 279 280 279 280 281 282 282 282 281 282 282 282 282 282 283 283 283 282 280 279
312 313 313 314 314 315 315 313 314 314 313 316 317 316 312 311 295 299 297 297 295 291 288 291 289 284 279 290 289 290 291 292 292 292 295 295 294 291 290 290 288 289 285 286 287 285 285 282 281 279 280 279 278 277 275 277 278 276 277 276 275 276 275 276 278 278 281 280 279 279 278 279 281 282 283 283 281 281 281 282 282 282 282 282 282 281 280 280
311 312 313 313 314 315 315 315 312 313 311 307 292 298 293 290 290 289 293 294 288 288 288 288 287 288 289 289 291 294 295 294 292 295 295 295 293 291 290 289 288 287 282 281 282 283 283 280 277 277 276 278 277 277 278 277 278 277 277 276 275 275 276 277 277 278 280 280 278 278 278 277 279 280 281 282 282 282 282 282 282 282 281 282 283 282 281 281
311 312 312 312 314 314 315 315 312 313 308 290 293 293 291 285 284 285 284 287 285 285 288 288 288 289 290 290 289 291 289 291 290 293 294 297 292 291 288 286 285 286 282 280 282 284 284 281 278 278 278 278 277 277 277 277 277 277 276 276 275 276 276 279 278 277 281 280 279 278 277 278 279 279 281 281 282 282 282 281 282 283 282 283 283 282 283 283
311 312 312 312 313 314 315 314 310 308 306 295 293 290 287 288 289 289 287 285 288 287 287 287 287 289 289 288 289 289 288 288 293 293 296 297 292 288 285 284 283 282 281 280 280 281 281 278 278 279 279 278 277 277 276 276 275 275 277 276 275 276 277 277 278 278 280 280 279 277 277 279 280 280 280 280 281 282 281 282 283 282 283 283 283 283 283 283
311 311 311 312 312 314 315 313 308 305 292 292 289 287 290 292 292 289 287 286 284 287 287 286 288 286 288 290 290 290 287 286 284 291 292 293 287 286 283 281 280 280 283 282 280 279 280 279 279 279 278 278 278 277 276 272 277 276 277 276 275 276 276 274 276 277 280 279 278 277 276 277 278 278 279 279 282 283 282 282 282 282 283 283 284 283 283 282
310 310 311 312 312 313 314 312 303 296 291 289 290 290 291 291 291 289 285 280 284 286 290 288 287 285 287 289 291 289 286 286 285 288 293 289 285 285 283 281 279 278 278 279 282 282 279 281 280 278 278 279 276 277 276 277 275 275 276 273 274 275 275 274 276 277 278 279 279 277 275 275 277 277 280 281 280 280 281 281 281 281 281 282 282 283 282 282
310 310 311 311 311 313 311 309 294 290 288 286 288 291 290 290 291 290 286 281 282 285 288 287 284 289 290 293 290 292 287 286 288 288 288 290 288 284 283 282 279 278 280 279 279 280 278 280 280 278 278 277 276 274 274 274 275 274 274 275 276 276 276 276 276 276 273 275 277 277 272 272 274 276 278 279 278 281 280 280 281 282 283 282 283 284 284 284
310 310 310 311 311 311 312 295 291 288 286 286 289 291 290 289 290 289 282 270 274 283 287 286 292 289 292 289 289 281 287 285 289 290 293 291 290 287 283 281 282 280 278 278 279 279 280 279 278 278 278 278 276 276 276 274 272 272 278 277 278 276 276 275 275 276 273 273 276 274 273 268 272 277 278 277 276 278 280 280 281 282 283 283 284 284 284 284
310 310 310 310 309 309 296 287 288 290 290 288 291 290 290 291 291 293 288 271 272 283 283 290 290 289 293 288 287 288 282 284 291 288 289 291 288 290 285 281 280 278 275 274 278 280 279 279 280 277 278 277 278 277 277 277 274 275 278 277 277 277 275 274 274 272 274 273 273 272 273 267 269 274 277 277 275 277 279 281 282 282 282 283 284 285 284 285
310 310 309 309 307 301 289 291 291 289 287 291 291 289 289 290 291 287 276 268 271 285 283 284 290 291 290 288 289 286 286 286 285 288 289 289 289 288 285 282 280 281 280 278 273 279 279 279 278 279 277 277 276 278 278 277 278 277 278 277 277 276 275 274 273 274 274 274 268 275 270 271 265 273 276 276 278 277 278 279 280 281 282 282 283 285 285 285
310 309 308 309 307 304 292 288 286 289 290 291 288 289 288 287 285 283 273 270 278 280 293 287 295 290 285 288 285 282 283 285 283 287 289 289 291 288 282 282 279 281 281 281 278 280 279 280 279 279 278 278 278 278 278 277 277 279 278 279 278 277 276 276 274 275 271 268 267 270 270 268 269 273 276 276 276 276 277 279 279 280 281 281 282 284 285 285
310 308 307 307 299 293 290 287 291 291 289 288 289 288 289 287 285 280 274 269 281 277 284 285 286 283 282 282 282 283 284 283 282 285 286 284 288 287 283 284 281 280 282 282 280 280 280 284 284 279 279 281 279 279 278 277 279 279 278 277 277 275 272 270 270 271 268 265 268 272 273 272 265 271 273 275 276 277 276 277 278 280 281 282 282 283 284 284
309 307 305 303 289 289 286 285 288 289 288 291 291 290 289 282 271 263 265 275 281 280 284 282 281 281 279 282 280 283 282 280 283 282 282 284 285 284 284 282 282 279 279 280 279 280 281 280 281 281 283 280 280 279 278 278 278 278 275 275 276 276 272 270 264 263 267 262 265 273 274 273 267 272 277 276 275 276 277 277 278 279 281 282 282 283 283 283
309 306 304 297 295 288 288 288 290 290 290 290 289 283 283 282 280 272 273 283 275 279 277 279 280 279 279 278 279 280 280 280 281 280 279 278 279 280 278 277 275 275 276 277 279 279 281 280 279 280 285 281 279 277 279 279 280 279 275 275 272 266 265 272 265 268 259 268 275 272 272 271 271 275 278 278 277 276 276 278 279 279 280 281 282 283 283 283
308 307 305 300 295 287 290 288 290 291 292 290 285 282 278 274 272 269 270 270 277 279 277 281 280 279 278 277 278 279 279 281 281 281 280 279 279 277 278 279 278 279 275 275 275 276 275 278 279 280 281 282 280 277 277 277 279 278 275 269 264 263 260 262 256 257 261 269 272 272 272 272 275 277 277 277 278 278 277 278 279 279 280 281 281 282 282 282
305 300 292 295 293 292 292 290 289 290 290 291 289 285 279 275 272 283 271 270 276 276 280 278 279 279 276 279 279 277 280 281 278 281 279 275 276 275 278 280 279 277 275 274 276 272 274 272 278 279 279 279 278 278 279 277 276 275 275 274 269 265 267 264 261 268 266 269 271 270 269 266 273 276 278 276 278 277 276 277 277 278 279 279 279 280 281 282
304 295 291 289 289 289 290 289 289 291 286 285 282 279 277 273 271 273 272 270 273 275 279 277 278 277 278 275 277 278 281 279 280 277 278 277 276 273 276 277 279 279 276 275 274 271 277 277 280 280 280 279 278 279 279 277 276 276 275 275 273 269 264 269 261 262 260 262 267 264 270 271 276 279 280 277 276 278 278 277 278 278 279 279 281 283 283 283
301 291 289 287 291 290 288 290 288 289 286 285 282 277 275 271 275 272 276 280 280 278 279 278 276 276 275 274 275 276 281 279 280 275 275 276 276 277 278 276 277 278 277 275 276 270 273 274 280 277 280 278 278 279 279 279 273 276 275 269 272 275 269 262 264 262 260 260 264 262 273 276 278 278 278 276 278 281 276 276 277 278 279 280 283 282 282 283
289 290 292 289 288 289 288 288 291 286 287 283 282 275 272 272 274 275 283 281 281 278 277 276 275 275 273 276 274 276 278 280 278 276 274 278 277 276 275 278 279 278 278 278 276 278 273 276 278 278 280 279 277 278 279 277 279 275 272 275 276 276 272 269 265 257 259 262 264 266 267 271 273 271 276 279 277 279 277 276 276 277 278 281 282 282 282 282
291 290 293 288 291 288 288 287 287 286 283 284 276 285 270 274 279 279 279 280 281 278 275 275 276 277 271 273 278 276 279 280 281 273 274 274 275 282 278 277 278 278 278 278 277 275 277 271 276 278 277 279 279 280 280 279 279 279 278 275 277 266 270 265 261 263 264 259 263 267 268 269 271 275 275 277 277 279 278 277 277 278 279 280 281 282 282 283
284 286 290 290 290 289 289 286 287 283 282 282 272 283 275 272 278 279 280 281 281 280 279 276 274 273 272 273 276 275 276 279 276 275 274 276 275 281 280 279 279 278 277 278 275 278 277 271 275 278 278 278 279 276 271 275 278 275 278 276 272 271 267 265 265 263 265 264 264 266 265 268 274 274 276 278 276 277 278 277 277 278 278 279 280 281 282 282
290 289 285 290 288 288 290 288 286 283 283 279 273 272 273 275 278 279 278 281 280 279 279 277 275 272 274 273 277 279 275 275 276 277 275 277 278 282 280 279 278 278 277 277 277 275 275 274 269 276 275 278 275 276 275 276 273 274 273 270 272 270 271 272 268 269 267 259 257 259 265 268 274 276 278 279 278 278 278 279 279 278 279 280 281 281 281 282
283 284 285 290 289 287 289 288 281 275 272 271 270 270 271 274 277 279 279 279 280 280 280 277 276 277 274 274 276 275 274 274 275 277 276 277 278 277 279 278 277 278 278 276 275 274 269 271 270 272 274 270 276 278 278 276 276 276 274 275 275 272 267 267 266 264 261 265 258 258 268 272 278 279 279 279 279 278 277 278 278 278 279 280 281 282 281 281
287 280 285 290 289 289 287 283 274 267 272 272 274 276 278 285 273 279 277 278 279 279 278 278 278 275 273 274 276 274 275 275 275 275 276 278 280 279 279 275 278 278 277 276 276 278 277 269 271 272 272 277 277 277 276 275 274 272 276 277 275 271 268 261 264 265 262 265 259 259 262 270 279 278 277 278 277 275 274 275 277 278 280 281 281 281 281 281
282 285 289 290 289 289 285 276 277 276 273 273 276 280 279 277 275 278 278 278 277 279 278 276 280 278 276 276 272 271 275 276 275 279 277 276 273 276 277 275 276 278 278 276 277 275 283 267 269 273 271 274 275 274 276 274 275 275 274 273 274 274 274 273 266 265 265 263 265 260 261 272 278 278 277 277 276 276 276 275 277 279 281 281 281 281 281 281
282 283 289 292 288 288 286 282 275 272 271 272 276 277 279 277 277 275 275 277 277 277 279 278 279 278 277 275 274 274 275 276 279 279 278 276 279 277 274 275 276 278 278 278 275 278 271 271 273 269 266 269 270 272 273 271 272 272 274 275 273 273 271 270 267 265 267 264 266 266 265 267 277 278 278 278 277 278 279 279 278 279 281 281 281 281 281 281
284 285 283 286 290 289 284 278 276 272 275 273 272 276 276 278 278 279 278 278 279 276 279 278 279 278 274 271 269 271 269 274 275 276 276 276 277 278 275 273 276 278 279 281 285 279 275 270 271 269 268 270 273 272 272 269 272 273 272 274 273 274 272 271 269 259 265 264 267 262 266 275 277 277 279 278 277 279 281 281 281 279 280 282 282 282 282 281
285 283 281 284 285 283 280 279 279 277 274 270 275 276 275 276 280 277 277 278 279 278 278 279 277 277 275 275 273 268 270 269 274 273 275 276 275 276 275 274 276 278 279 285 282 276 268 269 271 269 269 273 276 278 277 279 275 273 273 274 274 273 274 273 269 262 268 263 268 272 272 276 279 281 279 278 278 279 281 281 281 282 281 281 280 281 281 281
281 279 279 280 278 281 276 278 276 278 280 278 276 275 275 275 277 277 277 275 279 277 275 278 278 278 276 277 271 270 266 269 270 270 272 274 276 277 276 276 277 282 286 283 281 271 267 270 272 271 274 278 279 278 278 277 275 276 276 275 274 274 273 273 271 270 271 267 270 272 274 273 276 279 279 280 282 282 281 281 282 282 282 282 282 281 283 281
286 281 279 280 283 280 277 279 277 278 279 278 277 277 274 276 277 276 277 279 277 275 276 276 277 278 278 278 276 276 270 269 267 274 275 274 275 277 277 277 278 280 281 277 277 274 269 268 271 272 272 274 275 276 277 276 275 276 276 275 274 274 273 273 274 274 272 272 274 273 272 272 277 279 281 282 282 282 282 282 282 282 281 281 281 280 280 281
282 279 281 280 281 276 279 279 280 280 279 277 279 277 274 275 276 277 276 277 276 277 278 276 277 278 278 277 278 276 272 276 275 270 270 273 274 276 275 277 278 276 277 275 272 266 272 267 267 269 272 274 275 276 276 274 274 274 274 275 275 274 274 275 275 275 274 275 277 278 277 277 279 280 282 283 283 282 282 282 282 281 281 281 280 280 280 281
281 283 281 280 279 275 278 278 279 280 279 283 278 277 278 276 276 277 278 276 276 276 278 278 277 278 278 277 277 278 278 280 281 277 276 275 273 275 274 277 275 277 275 273 270 270 273 268 276 267 268 273 275 274 273 273 272 273 275 274 274 274 274 275 275 275 275 274 276 276 275 275 280 283 282 283 283 282 280 280 281 281 281 281 280 280 281 281
284 282 284 284 279 279 280 278 281 277 278 280 278 279 279 277 277 278 279 279 280 277 277 279 278 277 278 277 278 278 280 279 280 282 279 278 278 278 278 276 278 274 275 273 273 270 273 268 265 263 271 273 270 270 272 273 273 272 272 273 273 272 271 273 273 275 274 273 274 272 272 273 279 282 280 280 280 279 280 281 281 282 282 281 280 281 281 282
282 284 280 280 279 284 281 279 279 280 280 279 281 280 282 280 278 279 282 280 279 279 279 280 278 278 275 278 278 280 280 279 280 281 279 279 279 278 279 278 277 276 274 274 274 272 268 267 267 265 270 271 268 270 273 273 271 270 272 273 274 274 274 273 274 275 277 277 273 271 274 280 281 281 279 281 281 281 281 281 281 281 281 281 281 282 282 283
Wind_Speed
14 14 13 13 13 12 12 12 12 12 11 12 11 11 11 11 11 11 12 10 9 9 8 10 9 7 3 2 2 1 6 12 11 20 30 11 19 25 25 25 25 24 21 5 11 8 5 9 13 9 10 10 7 6 4 7 4 6 7 4 8 1 5 0 1 0 0 0 3 5 3 4 5 7 3 2 2 3 2 2 4 2 0 0 2 1 3 5
14 14 14 14 14 13 13 13 13 12 12 12 12 11 11 11 11 11 11 11 9 9 8 10 10 6 4 5 4 1 3 8 9 28 18 17 28 28 27 26 24 24 16 13 10 3 9 6 5 12 10 7 5 4 3 3 6 9 4 6 6 1 0 2 1 1 1 1 1 2 1 2 1 1 4 4 7 7 4 3 2 3 3 6 6 7 7 7
15 15 15 14 14 14 14 14 13 13 13 12 12 11 11 10 11 10 11 10 9 8 9 11 12 6 1 4 5 2 1 2 14 26 16 27 29 29 28 26 24 21 5 3 1 7 6 2 1 14 6 7 10 3 5 5 4 3 7 8 2 4 1 3 2 1 3 2 0 1 1 1 2 0 3 2 5 5 7 8 6 4 10 9 7 7 7 6
15 15 15 15 14 14 14 14 13 13 13 12 12 11 11 11 10 11 10 10 10 8 6 10 14 7 8 4 3 2 3 5 19 7 12 27 29 29 27 26 24 16 4 3 2 3 3 5 10 13 5 12 5 1 11 7 4 2 8 4 4 4 3 1 3 2 1 2 1 1 1 1 1 1 1 1 3 3 3 1 1 7 8 8 7 7 5 7
15 15 14 14 14 14 14 13 14 14 13 13 12 11 11 11 10 9 10 10 11 9 7 8 14 12 5 5 4 2 4 10 5 8 15 27 27 27 24 23 21 12 4 3 2 5 6 6 8 8 7 3 6 6 5 6 4 5 3 2 6 2 4 3 2 2 2 1 2 0 3 1 1 0 1 2 2 3 2 3 3 3 4 4 6 8 4 10
15 15 14 14 14 13 13 13 14 14 13 13 13 12 11 10 10 9 9 9 11 11 9 7 5 10 17 11 5 6 6 5 5 10 17 24 26 24 22 19 19 10 4 12 7 6 16 11 15 7 6 7 8 10 4 1 1 10 2 1 1 2 3 1 0 2 1 1 2 1 1 0 1 1 1 1 2 2 1 2 2 1 2 3 2 4 9 10
15 14 14 13 13 13 13 13 13 13 12 12 12 12 10 10 9 9 9 10 12 14 15 11 6 6 2 9 12 26 16 3 2 11 17 21 23 21 21 13 11 8 19 13 13 11 8 14 17 5 6 11 7 9 5 6 9 8 4 1 2 0 1 1 1 3 2 5 2 1 1 1 1 3 1 1 4 5 2 2 0 1 2 2 7 7 6 6
15 14 13 13 13 12 12 11 11 10 10 11 11 11 11 11 11 9 10 10 10 11 12 14 10 6 2 2 3 12 14 5 11 7 16 20 18 16 16 7 18 11 19 11 5 5 3 11 9 1 10 8 1 4 1 9 8 8 5 1 0 1 3 3 2 5 3 1 2 2 3 5 1 0 2 4 3 2 2 3 5 4 5 7 7 7 7 9
13 13 12 12 12 10 10 10 10 11 12 12 12 12 12 11 11 9 8 8 8 9 11 14 16 10 1 3 2 19 9 5 6 8 11 15 15 11 16 13 14 12 6 11 9 2 7 3 3 0 3 4 1 4 5 2 7 4 2 1 1 2 4 5 4 6 5 2 3 6 6 4 2 4 1 3 2 3 2 4 7 5 7 6 5 6 6 7
12 12 11 11 11 12 13 14 13 12 12 11 10 10 9 10 8 7 7 7 8 9 9 10 14 16 10 1 6 19 3 5 6 8 11 13 12 12 17 11 12 12 13 10 14 14 8 1 11 6 14 10 1 5 3 10 3 2 3 4 5 3 4 6 5 8 5 1 2 5 6 4 5 3 2 2 2 5 3 4 5 6 6 6 6 7 5 6
11 12 11 11 13 13 13 12 11 10 10 9 9 8 8 7 8 8 9 8 10 7 7 10 7 9 11 19 16 10 3 6 4 7 10 10 9 13 9 9 9 5 6 10 12 4 2 4 3 1 6 1 3 8 8 1 3 5 4 4 6 4 6 6 6 11 5 1 2 2 3 1 4 1 2 4 5 4 1 3 5 5 5 6 7 6 5 4
12 11 12 11 11 12 13 12 11 9 9 8 8 8 7 7 8 10 10 5 6 7 9 7 5 4 6 24 15 2 3 5 5 5 8 10 7 2 1 4 4 5 8 9 7 5 3 3 4 2 3 1 5 0 5 0 3 1 1 1 3 5 6 9 5 8 1 1 3 0 1 2 3 1 3 5 3 3 1 2 4 5 5 5 5 5 5 5
12 12 12 11 11 12 14 13 11 9 9 9 8 8 6 6 8 9 8 9 12 6 6 8 2 4 2 19 2 4 2 4 4 7 9 11 5 1 1 3 5 6 6 9 3 4 3 3 9 16 1 5 2 2 2 6 1 0 5 2 2 7 4 9 2 10 3 0 5 2 2 6 4 4 5 6 2 1 2 4 4 4 4 5 5 5 6 6
13 13 13 12 12 12 12 11 10 8 9 12 12 10 8 7 7 8 9 7 11 7 4 9 7 10 14 3 2 3 4 0 3 12 15 10 9 4 2 7 5 5 3 9 5 1 5 6 16 11 3 7 3 2 3 3 5 1 3 5 3 5 4 6 4 11 8 2 8 1 2 5 4 5 2 5 1 0 2 4 5 4 5 5 5 5 5 7
14 14 14 13 12 12 12 11 9 8 7 8 15 16 13 9 6 8 9 9 14 9 4 4 6 5 8 1 5 6 1 1 12 8 5 11 7 6 10 11 6 7 3 5 3 4 5 1 7 9 4 1 1 2 3 3 4 4 2 5 3 7 6 6 4 7 10 5 8 2 4 2 5 4 5 4 2 0 2 5 5 5 5 6 5 5 6 6
14 14 13 13 12 12 12 11 10 8 8 8 9 11 19 15 9 7 9 6 8 10 1 8 8 8 12 5 1 4 6 10 12 6 3 4 4 3 7 6 4 4 5 4 2 3 6 6 16 1 3 4 9 4 4 4 6 6 6 0 3 3 5 3 1 3 5 4 3 8 2 3 2 4 7 5 2 1 2 4 5 6 6 5 5 5 5 6
15 14 14 13 12 11 12 11 10 10 9 8 9 7 11 20 13 4 7 8 7 5 10 4 3 1 9 4 1 6 4 3 4 4 7 1 1 2 5 5 3 6 5 1 8 5 8 8 1 4 5 7 2 2 1 7 5 4 4 2 0 2 5 2 6 2 7 5 4 7 2 1 6 8 7 6 3 0 1 4 5 5 4 5 5 5 5 5
16 14 14 13 11 10 12 14 12 12 9 6 3 5 4 10 20 19 11 7 2 6 4 5 2 5 3 6 4 7 3 6 9 8 6 1 3 5 7 6 2 3 4 4 6 10 5 4 3 5 1 7 11 11 10 3 2 4 6 5 4 2 2 4 4 6 13 4 4 7 1 5 6 6 6 5 4 0 3 4 5 6 6 6 6 5 5 5
15 15 15 14 13 12 11 13 13 12 11 4 2 1 3 5 3 11 13 8 10 10 10 11 10 8 1 7 6 7 6 4 4 5 14 10 3 3 3 2 3 4 2 6 4 7 7 3 3 1 16 15 13 6 4 0 1 3 3 1 1 5 4 4 2 2 7 8 7 7 2 8 10 8 7 8 4 1 4 4 4 5 5 5 5 5 5 4
15 15 15 15 13 12 12 12 14 11 10 2 3 0 3 3 8 6 9 15 9 5 5 1 0 0 1 5 7 7 5 4 4 12 10 2 4 7 7 4 4 8 7 4 6 3 1 10 13 8 5 6 4 1 3 2 1 1 2 2 3 3 5 3 3 2 4 2 1 4 6 3 6 5 6 6 6 3 4 5 5 5 5 6 6 6 6 6
16 15 15 15 13 12 10 10 12 10 7 5 4 5 0 3 5 4 3 3 1 2 4 0 1 1 0 2 4 7 6 4 2 12 9 5 2 5 8 7 7 11 6 1 0 5 1 16 7 3 3 4 3 2 0 2 2 2 2 3 1 0 6 1 1 2 6 1 3 4 4 3 4 4 5 7 3 4 4 5 5 6 5 5 5 7 7 7
16 16 14 14 12 10 9 8 12 6 8 5 9 7 2 2 0 1 5 5 3 1 3 0 2 2 2 3 1 1 3 1 13 16 9 10 8 6 4 9 8 9 5 3 2 6 13 11 3 1 1 1 1 2 1 2 2 0 1 2 1 5 4 4 1 2 5 1 5 5 5 3 5 5 6 3 3 5 3 2 5 5 8 7 6 5 7 8
16 16 15 14 13 10 8 7 8 12 7 9 5 4 2 0 1 1 2 7 4 1 4 3 6 5 4 2 0 2 4 12 3 10 11 8 5 8 1 7 7 4 9 7 5 3 10 7 4 1 2 3 2 5 3 2 2 2 5 5 4 2 5 2 2 5 9 3 4 4 2 3 6 3 3 2 2 4 5 4 7 5 7 8 7 6 8 8
17 17 17 15 14 10 6 5 5 10 7 5 7 2 1 0 1 1 2 2 3 2 1 0 1 1 3 4 3 4 4 1 2 14 8 4 4 1 5 2 5 5 5 7 11 14 7 0 1 1 3 3 2 3 6 6 3 1 1 2 1 3 2 3 5 6 5 0 0 1 2 3 5 5 7 5 3 3 5 7 4 3 3 6 8 7 5 7
17 16 16 15 14 10 6 7 9 1 1 3 3 0 1 1 1 1 3 1 5 2 4 1 3 1 2 1 3 0 0 1 1 3 3 4 4 3 1 1 2 3 1 1 5 10 4 1 0 2 3 4 2 2 4 2 4 4 3 1 1 1 6 5 4 6 3 1 7 5 1 1 4 3 3 4 8 9 5 6 6 7 7 5 6 7 7 5
16 17 17 17 16 10 4 5 1 1 3 3 1 1 1 2 1 1 7 4 2 4 3 6 1 3 2 3 5 1 0 3 1 2 1 1 4 2 1 3 1 2 1 2 5 4 2 1 3 1 3 3 3 2 1 2 1 2 5 3 2 3 3 3 4 0 2 3 4 2 2 2 2 2 4 4 5 6 5 5 6 6 7 6 6 6 7 6
17 16 17 14 16 6 3 0 1 1 1 1 1 1 1 1 1 1 0 5 6 1 3 2 1 1 2 1 1 1 3 3 3 2 4 3 2 1 4 4 2 1 2 1 2 3 3 4 6 5 5 4 5 6 1 1 2 1 0 2 4 1 1 1 1 1 1 1 2 4 3 2 2 3 2 5 3 4 6 8 8 7 7 7 6 6 6 7
15 15 14 11 14 11 3 5 1 2 0 0 0 0 1 1 1 1 5 3 2 3 2 4 1 3 5 6 9 7 2 6 3 3 3 5 1 3 6 1 4 2 1 1 3 1 3 5 5 6 5 5 5 1 4 1 0 2 0 3 2 1 1 4 3 2 1 1 2 7 3 1 2 5 4 2 5 8 5 7 7 8 8 6 8 8 8 7
15 15 14 7 8 11 7 4 4 2 0 0 1 1 1 1 2 5 3 3 1 2 2 0 2 2 8 5 7 2 2 5 3 3 8 2 6 2 3 0 3 2 0 2 5 1 1 1 1 1 3 6 4 4 1 5 3 1 2 4 3 4 5 3 2 3 1 3 4 3 4 1 6 5 7 3 2 5 4 7 7 7 7 7 6 8 9 8
14 16 13 5 2 5 5 4 5 0 0 1 1 2 1 1 2 1 1 2 1 1 1 3 4 6 4 3 2 7 7 4 1 6 5 5 11 7 3 1 1 3 5 7 7 2 1 2 3 3 2 2 4 5 3 5 3 0 4 2 2 4 3 3 4 2 2 1 3 2 1 1 2 3 1 1 2 4 4 6 5 7 8 8 7 7 7 7
11 14 14 7 5 1 1 3 0 1 2 1 0 1 1 6 3 5 2 1 1 2 1 4 1 4 5 7 5 5 1 2 7 5 5 4 9 3 3 1 4 3 5 5 5 6 1 0 1 1 1 4 1 4 0 1 1 2 1 1 3 0 3 1 4 2 2 3 3 3 1 0 0 4 2 6 3 2 4 4 6 6 8 8 7 8 7 6
7 10 14 10 1 1 2 3 1 1 2 2 1 2 3 2 7 5 3 4 0 2 2 3 1 0 3 1 4 5 4 5 2 5 6 4 10 15 12 7 6 6 5 8 8 2 0 3 3 5 1 7 4 2 3 1 2 5 2 4 3 3 6 1 9 2 0 0 0 2 1 1 5 7 3 4 4 3 5 6 5 5 7 8 8 8 7 6
6 3 10 7 2 3 2 0 2 2 2 1 3 4 2 6 2 2 1 2 0 1 0 2 2 3 3 0 5 4 2 5 5 3 1 3 7 3 1 7 3 1 2 2 2 8 2 2 5 5 2 2 3 7 7 6 8 10 8 5 5 4 4 1 3 3 4 5 2 1 1 2 3 5 4 3 4 4 5 7 6 6 7 7 8 8 8 7
7 6 6 3 6 3 2 2 2 2 1 1 1 4 6 6 1 2 0 1 0 2 3 1 4 1 7 5 3 4 4 0 4 5 5 2 6 4 6 5 7 6 3 2 6 3 7 5 5 5 3 4 4 3 1 3 3 2 2 1 3 4 1 2 1 2 2 6 7 3 1 2 5 2 2 4 4 5 5 5 5 7 7 6 8 7 5 6
6 8 3 2 2 3 2 1 1 1 2 3 9 5 4 1 1 3 2 1 1 1 0 1 1 2 3 2 4 1 1 2 3 3 8 5 5 2 5 7 7 2 1 1 1 1 0 5 3 1 3 3 3 1 0 1 0 1 2 2 5 1 2 0 1 1 2 5 7 2 2 3 4 1 3 2 5 4 3 2 2 3 3 4 5 7 8 8
3 2 2 2 2 2 2 1 2 2 1 6 7 7 2 4 1 2 1 1 1 1 0 1 4 2 1 2 1 3 4 0 4 5 3 4 1 2 1 1 4 4 4 3 2 3 3 0 1 6 3 3 2 2 2 0 2 2 2 3 1 2 5 4 1 1 1 3 6 1 8 4 7 2 1 3 2 2 2 3 4 5 6 6 7 7 8 8
1 2 1 2 1 2 0 0 0 2 6 7 7 1 2 1 3 1 2 1 0 2 2 1 2 2 1 1 2 6 2 1 1 3 3 0 1 1 2 1 2 2 1 2 1 2 0 9 2 3 1 1 0 1 1 3 0 1 4 1 2 2 2 2 1 4 6 1 4 3 2 9 6 1 2 1 3 5 4 6 4 6 4 6 7 7 8 8
1 1 0 1 1 1 1 0 2 5 6 8 5 3 0 2 0 1 0 1 0 1 3 2 0 1 1 0 3 3 6 2 7 6 0 1 1 0 0 0 1 2 2 3 1 1 1 4 2 0 1 5 2 0 2 1 1 5 4 3 1 1 2 4 3 5 5 3 7 8 3 6 4 4 1 3 4 5 5 5 5 6 6 6 7 9 9 9
2 1 1 1 1 1 0 2 5 1 3 10 1 3 1 0 0 0 2 1 0 1 2 1 1 0 3 0 1 1 3 3 2 2 2 2 3 2 1 0 1 0 3 1 2 0 1 1 6 0 0 4 2 3 0 4 3 2 1 2 0 3 3 2 0 2 4 5 7 8 5 3 6 5 5 3 5 4 5 4 6 6 6 6 7 7 8 9
0 1 1 0 2 1 1 2 6 9 9 5 2 1 0 2 0 1 2 1 0 1 0 2 0 2 0 2 0 0 2 1 1 1 2 1 1 1 1 2 0 1 2 2 1 1 0 1 2 2 2 1 1 2 1 0 1 4 4 3 2 2 1 3 0 0 2 3 2 1 8 6 6 5 5 6 5 5 5 6 6 6 6 6 7 7 7 8
1 2 1 0 2 1 1 12 14 8 7 0 2 3 1 2 1 1 2 3 0 1 1 2 4 1 3 1 0 0 1 2 1 1 0 0 1 1 1 1 0 2 1 1 3 2 1 1 3 6 7 2 3 0 0 1 1 1 1 2 3 2 2 1 3 1 1 2 2 1 9 8 10 3 7 5 5 4 5 5 6 6 7 7 8 8 6 7
1 1 2 0 1 2 4 9 5 0 5 4 1 0 2 2 4 0 1 1 1 0 2 3 1 3 1 2 1 1 1 0 0 1 1 1 0 1 0 3 1 0 1 0 0 1 1 2 1 7 4 3 2 2 1 1 1 1 1 0 3 4 4 3 0 2 1 1 3 2 0 12 6 2 3 4 3 4 4 3 6 6 7 8 9 8 8 6
2 1 1 1 2 2 11 7 1 6 4 1 3 1 2 1 2 1 0 1 0 0 1 2 0 1 1 0 1 1 1 0 2 0 0 1 2 1 0 2 2 2 1 1 1 0 4 2 4 5 3 3 0 1 0 2 1 1 0 1 1 0 2 5 3 3 2 0 1 1 2 11 6 0 3 3 4 4 4 4 6 8 8 9 8 9 8 8
1 1 2 1 1 3 3 0 1 2 0 1 1 0 2 1 1 2 0 1 0 0 1 1 1 2 2 1 2 2 1 1 2 0 1 1 1 2 5 5 0 1 1 0 1 1 1 1 2 4 5 4 1 1 1 1 1 1 1 2 2 3 5 3 5 1 1 7 7 8 7 6 2 1 2 1 3 5 6 5 6 8 8 8 8 7 7 7
1 0 1 7 8 5 1 3 8 6 1 2 1 3 0 1 1 0 1 1 0 1 0 1 0 2 2 1 2 1 2 1 0 1 0 1 2 1 4 6 4 1 0 3 0 0 0 2 1 2 3 5 8 9 7 4 3 1 0 1 1 5 7 1 1 1 1 2 4 3 8 11 6 3 2 3 4 7 8 7 6 6 8 10 9 8 8 7
1 0 4 5 8 8 6 1 5 8 7 3 3 0 1 1 0 1 2 1 0 0 2 2 0 3 3 0 2 4 1 3 1 1 0 1 2 1 1 6 4 2 2 4 4 1 1 0 1 4 4 5 8 5 0 2 2 2 2 3 4 2 1 3 5 4 7 3 8 13 8 12 19 18 6 5 4 8 12 8 7 7 6 7 7 8 7 8
1 2 1 1 5 8 3 4 3 3 6 4 2 3 0 1 0 1 1 1 0 0 1 1 1 1 0 1 1 1 0 3 2 0 3 2 1 1 1 3 2 2 4 1 4 3 2 1 4 5 8 10 6 8 5 3 7 11 8 8 6 6 7 7 8 8 6 6 10 6 8 7 17 15 10 10 12 10 7 7 8 8 9 10 9 8 10 9
0 1 2 1 1 1 2 2 3 5 3 2 1 1 3 2 0 1 1 0 0 1 0 0 1 2 5 3 4 1 1 1 1 1 0 1 1 1 0 2 1 4 3 1 2 1 2 1 1 1 7 9 11 14 11 7 7 11 10 7 8 8 8 11 13 7 8 7 14 1 4 4 15 13 14 15 14 11 12 13 10 9 10 9 8 8 9 9
2 1 1 1 0 0 0 0 3 7 7 3 2 2 2 3 5 3 3 1 1 0 1 1 3 7 5 1 1 1 2 1 2 1 3 0 1 0 1 0 0 4 1 1 2 1 1 3 2 1 9 10 13 15 11 8 6 7 11 12 12 9 13 15 15 9 14 17 17 15 14 19 21 21 21 19 13 9 12 9 9 10 12 9 7 9 9 9
1 1 0 4 6 3 0 1 2 4 4 0 3 3 5 6 5 1 1 3 1 1 1 1 4 1 4 4 2 1 4 3 1 1 2 2 0 2 2 3 1 2 2 1 0 1 1 4 2 0 2 8 5 2 2 4 4 12 11 10 12 10 10 13 10 11 9 15 21 20 17 20 23 18 15 15 12 8 7 10 12 11 9 8 8 9 10 10
1 0 3 7 3 1 0 2 1 3 2 1 1 1 2 4 4 6 2 3 1 4 5 5 3 6 1 3 1 5 3 2 1 1 6 5 2 4 2 2 4 3 1 1 0 2 0 3 2 2 5 8 1 2 5 6 10 12 18 13 10 9 8 10 11 11 10 16 8 2 8 14 20 12 5 9 8 7 10 11 9 9 8 6 7 10 10 10
2 0 1 4 3 1 0 0 0 2 1 4 3 3 2 6 4 5 1 1 1 1 6 6 5 7 1 1 7 7 1 4 3 0 5 1 3 3 2 1 2 5 4 3 0 2 2 1 1 2 3 8 2 2 12 10 7 5 9 11 13 12 6 1 6 4 15 8 4 7 12 13 10 3 4 8 7 9 9 10 10 8 7 7 9 10 10 10
Wind_Direction
25 23 22 23 20 18 18 20 18 17 13 12 10 9 6 4 3 357 359 1 356 355 346 340 340 325 327 293 255 284 340 59 17 34 39 0 343 336 341 339 345 345 337 5 24 49 17 24 19 334 44 49 322 31 323 38 0 51 50 105 52 144 59 255 86 169 186 45 310 348 346 26 7 343 313 138 349 34 304 0 312 341 31 234 270 292 286 323
23 23 20 18 17 17 16 13 13 10 7 5 4 359 358 2 358 2 0 4 2 349 342 341 350 356 294 198 201 336 75 41 8 37 32 343 346 344 342 345 346 354 350 34 32 41 71 355 352 41 42 47 329 34 7 15 33 68 101 63 117 158 88 159 206 225 107 289 246 264 308 34 341 320 320 35 328 2 3 341 355 307 300 334 341 339 341 340
23 21 19 16 16 16 15 14 13 11 6 3 4 357 357 353 2 0 4 4 1 357 341 346 359 5 252 166 142 171 55 2 22 23 344 347 344 345 341 342 348 358 24 42 30 67 90 141 265 77 1 83 13 15 30 348 62 22 109 81 52 204 177 205 195 189 193 182 294 0 308 63 297 99 302 54 304 356 9 339 339 350 325 335 321 334 327 338
23 20 19 18 17 16 17 17 15 13 11 6 3 0 358 358 357 4 1 4 5 2 338 359 26 53 71 101 92 67 73 4 44 321 332 346 343 340 340 339 347 350 14 51 99 100 103 89 64 78 83 62 323 333 47 332 76 335 67 130 166 185 128 242 186 222 210 180 161 158 259 31 304 265 71 271 24 327 298 230 285 303 307 307 310 319 323 347
23 21 19 19 18 17 15 13 13 11 8 6 3 0 0 0 359 358 1 5 10 8 352 334 26 46 62 91 89 71 76 52 351 340 324 341 343 336 334 339 345 344 20 299 62 37 70 54 84 52 66 76 4 26 19 345 66 86 84 145 131 163 82 212 214 214 183 151 99 348 53 261 303 74 70 102 107 297 285 309 307 267 277 294 321 328 344 7
22 21 21 17 14 11 9 6 4 1 359 1 3 359 359 357 1 353 5 4 24 24 8 359 324 35 63 62 69 82 86 72 317 324 329 336 337 335 330 335 348 348 323 49 49 28 48 10 65 26 35 59 8 68 313 300 1 96 343 52 234 205 126 285 3 346 65 40 40 27 244 350 47 288 225 137 188 240 179 254 269 249 266 290 266 347 6 3
22 21 19 16 8 3 2 358 353 351 350 352 359 2 355 358 358 359 1 6 18 20 14 6 1 237 240 41 57 72 78 153 332 296 335 336 335 331 330 329 347 22 44 35 19 54 29 59 67 33 87 80 29 66 22 47 19 83 123 54 45 227 68 22 355 52 48 40 0 237 334 246 355 350 129 270 255 237 296 294 271 303 310 335 21 4 3 349
21 19 15 12 5 358 355 351 346 341 347 355 357 356 359 360 1 357 1 1 358 1 5 16 17 358 301 47 15 55 58 343 317 321 333 337 335 332 328 4 10 22 43 46 350 40 52 45 66 173 55 73 278 77 312 66 32 74 88 291 1 40 351 337 15 8 356 339 287 11 354 305 241 232 14 281 271 301 329 0 8 348 14 16 18 359 352 356
19 16 11 7 359 350 348 350 352 351 356 358 359 359 1 357 357 352 357 354 352 347 352 3 2 356 189 90 129 63 15 311 288 310 341 340 333 331 21 16 346 38 57 30 21 31 95 350 77 27 165 67 330 76 335 110 30 39 83 103 20 25 344 6 18 5 2 304 25 357 334 316 313 279 256 263 315 349 329 27 2 6 18 6 353 350 359 351
16 13 6 0 357 357 356 356 351 355 352 355 350 352 349 354 346 350 349 358 0 358 345 4 9 339 48 84 51 68 282 267 309 340 343 344 328 11 22 15 8 27 45 3 33 34 61 355 94 100 117 87 95 43 315 65 130 127 81 77 90 338 27 359 45 357 339 68 342 7 337 327 331 24 316 327 306 316 25 357 350 21 9 345 344 342 350 347
11 8 4 359 2 358 355 352 350 347 349 344 345 349 346 345 353 358 3 3 5 344 348 20 11 0 59 58 62 77 235 7 345 345 346 337 5 31 11 358 355 44 72 48 52 44 130 111 130 128 39 97 72 34 53 183 147 57 132 102 31 351 55 7 19 8 350 19 49 11 312 326 330 56 270 283 326 7 63 345 343 4 357 336 326 335 327 326
8 4 2 359 353 355 358 351 353 347 348 346 347 341 348 358 4 7 355 339 345 21 27 351 45 120 70 68 54 69 294 286 336 327 347 357 4 332 348 7 20 48 62 67 37 26 79 115 110 74 137 158 68 73 61 22 65 142 324 83 324 6 34 13 18 337 19 357 21 340 27 3 347 55 326 313 326 25 62 342 337 345 338 323 321 323 328 308
6 2 359 355 352 357 357 353 351 354 354 356 3 14 8 6 13 354 339 17 6 15 11 22 20 77 112 55 16 241 301 303 343 327 350 17 343 246 130 54 50 43 59 87 56 358 36 91 85 76 15 96 137 66 171 69 4 156 37 103 27 3 16 360 319 348 10 319 10 349 36 305 291 266 286 336 351 13 357 328 320 321 325 319 322 321 313 310
4 0 358 355 353 352 351 350 351 349 8 34 40 33 24 14 9 354 4 20 5 9 1 27 52 43 70 158 235 243 280 27 310 9 7 333 25 323 323 4 29 36 3 90 93 1 66 51 81 100 105 63 101 320 51 351 15 118 306 59 47 19 344 346 29 341 34 291 6 38 99 312 292 314 295 335 3 114 300 300 307 318 321 321 320 319 310 299
4 359 357 353 348 345 347 348 344 342 343 25 46 40 31 26 9 19 13 14 3 357 56 40 44 78 43 63 258 295 339 129 17 5 330 10 8 341 352 340 4 357 18 66 95 32 56 353 82 38 34 15 34 49 7 39 10 27 59 349 333 54 296 324 4 32 33 321 351 55 56 286 288 277 311 330 15 101 302 297 307 315 313 318 318 319 314 300
1 357 353 350 347 344 347 350 344 335 335 329 332 11 36 32 34 27 36 42 355 14 120 56 353 88 104 50 316 22 39 22 345 329 321 44 32 1 287 281 293 5 31 39 55 56 76 56 67 167 15 7 50 76 69 30 355 7 76 226 340 357 320 346 12 31 12 286 340 49 226 328 317 305 331 348 15 27 277 303 304 310 309 311 315 313 306 314
1 357 352 348 343 341 350 349 348 343 338 332 334 340 23 37 27 56 69 45 4 350 55 17 358 45 71 252 352 27 341 305 314 338 343 89 64 297 344 22 10 342 353 14 30 49 5 60 306 40 47 85 310 117 51 30 3 2 21 53 220 14 333 358 315 4 1 41 323 1 94 227 260 301 310 342 6 322 296 288 302 303 300 298 305 307 302 308
360 353 349 345 347 344 353 356 350 349 334 335 351 348 359 359 31 39 4 8 3 75 85 104 124 43 17 13 23 316 315 296 339 298 247 267 70 18 46 30 339 356 30 9 358 39 343 44 25 117 182 39 34 30 72 34 284 311 343 11 337 299 238 269 350 326 2 28 49 345 52 305 301 312 326 321 350 319 264 279 287 299 307 311 312 305 301 304
357 354 348 348 346 350 351 353 351 348 340 309 352 308 17 31 19 55 31 343 38 353 25 346 10 74 168 311 279 289 297 249 295 8 341 0 334 77 49 92 63 48 346 53 334 44 353 43 33 82 23 7 14 42 69 219 102 226 196 197 232 355 322 330 267 313 24 339 2 19 342 306 312 324 329 338 349 325 282 305 306 302 302 304 298 296 303 301
357 355 351 348 349 346 345 345 352 350 346 18 7 22 16 17 4 0 348 38 65 89 137 247 61 225 337 357 334 288 265 13 8 350 0 356 344 351 37 37 1 64 56 57 315 51 274 65 42 43 306 327 302 213 235 279 228 148 121 133 216 243 280 274 287 269 334 341 352 333 311 270 288 293 296 313 326 334 328 316 310 302 305 308 310 308 303 303
357 355 352 348 346 340 338 340 351 345 26 86 73 62 61 152 83 67 329 44 208 24 75 179 151 134 115 294 312 357 16 331 81 7 2 295 93 48 343 19 4 47 4 273 178 311 30 58 22 19 294 262 266 289 79 81 124 169 173 190 266 226 340 273 277 339 339 61 316 2 348 315 288 302 299 320 359 311 305 310 304 304 303 296 299 309 314 296
354 354 349 345 341 335 338 347 1 11 34 67 69 89 119 168 88 109 122 57 11 25 37 133 244 24 329 202 270 154 122 336 3 0 344 26 344 84 322 68 50 49 319 13 2 15 47 51 321 268 271 89 48 25 120 149 135 6 220 263 128 331 274 292 240 323 333 102 319 15 6 317 318 306 307 313 301 274 275 240 270 296 303 307 308 310 314 328
353 349 349 345 344 335 343 353 31 32 40 29 59 71 79 272 347 250 99 122 86 313 45 15 24 15 349 329 336 119 45 43 304 348 346 10 2 59 34 46 31 25 21 15 91 24 56 13 346 126 128 103 7 12 46 70 79 60 351 52 13 292 24 333 304 353 350 49 333 339 354 293 321 305 285 269 292 296 293 283 280 262 274 286 292 299 300 300
353 352 348 345 340 335 346 354 43 39 35 84 82 77 229 88 1 53 70 87 119 337 47 274 104 132 29 9 331 52 56 348 65 339 350 37 55 245 72 90 68 45 26 15 69 80 118 250 0 75 59 150 90 350 33 37 352 310 109 117 84 343 314 199 272 335 304 246 295 337 90 335 345 8 349 324 329 318 340 344 344 322 247 265 284 290 241 263
352 349 347 339 340 340 329 29 39 57 166 40 55 234 206 147 101 72 96 13 18 20 167 78 111 40 319 284 1 105 323 157 84 237 287 41 343 39 66 165 91 2 234 265 66 81 36 326 193 28 40 53 91 32 41 56 3 327 242 157 142 277 295 278 312 350 24 316 24 38 43 309 305 296 295 301 348 355 328 12 348 328 333 343 334 312 312 287
349 352 351 347 342 336 316 47 351 149 70 58 206 221 170 147 70 60 90 75 55 290 12 11 180 1 172 332 12 162 16 48 265 290 316 59 196 122 107 22 57 76 216 114 107 103 119 357 74 43 53 34 64 98 246 90 342 62 341 129 43 287 236 286 320 15 40 82 343 27 112 259 328 348 329 322 329 320 326 11 339 344 342 337 323 312 307 307
352 350 355 349 346 328 40 214 180 158 42 326 215 266 225 134 225 30 38 355 45 316 14 267 64 313 102 304 345 106 43 308 333 358 17 354 31 305 87 329 27 66 101 171 36 9 20 345 13 33 39 47 31 21 271 76 67 349 290 79 333 303 203 235 92 107 154 311 295 44 65 155 306 295 262 309 304 333 353 348 342 337 331 323 318 313 310 314
350 349 354 359 13 38 125 120 72 49 169 246 3 99 49 106 129 25 75 62 340 352 8 318 56 332 63 316 17 78 146 296 42 338 69 292 74 352 83 115 106 12 313 82 98 273 76 345 17 354 20 39 35 283 302 95 214 259 307 244 309 190 163 95 76 66 1 52 318 347 354 55 264 265 301 333 20 350 335 334 321 315 316 318 318 318 321 315
349 350 354 4 36 59 63 97 105 103 246 227 45 78 57 78 93 108 125 104 257 76 192 89 230 27 340 356 36 37 335 5 95 295 329 343 37 190 60 195 150 160 323 117 152 206 336 132 231 167 53 359 275 281 217 159 1 286 117 75 80 75 64 73 106 78 346 65 315 306 343 92 293 272 339 346 48 336 295 305 296 292 294 296 309 319 322 323
351 354 357 345 24 13 4 37 47 225 55 20 25 90 49 59 34 31 14 21 354 296 39 277 55 298 14 37 336 2 34 343 131 308 12 71 324 30 64 99 122 52 23 21 76 184 214 279 176 91 26 291 285 284 204 189 222 58 81 56 19 39 25 11 60 78 60 27 258 212 300 123 285 272 231 17 320 235 300 303 293 309 327 330 325 317 314 317
356 4 6 33 76 192 60 36 298 75 77 38 143 50 60 39 105 98 90 221 51 275 25 37 344 19 25 45 353 342 39 345 344 25 348 355 4 57 30 27 27 61 50 18 40 348 358 9 57 283 129 296 150 313 79 205 168 120 89 102 68 345 16 29 343 36 83 287 254 211 0 163 62 300 298 232 277 240 212 247 286 310 311 312 313 311 316 322
359 25 28 46 114 78 84 174 161 126 87 109 75 55 74 262 11 85 169 329 193 293 75 299 4 73 19 312 76 345 351 331 10 33 30 4 29 32 5 59 336 24 353 15 338 6 45 44 292 319 164 31 331 44 308 65 331 32 114 41 93 288 30 302 10 3 6 214 33 176 336 27 241 218 261 303 274 271 219 219 239 272 295 305 312 315 315 313
352 46 52 42 55 49 39 99 88 127 103 61 71 51 61 91 60 265 292 324 263 31 299 130 272 359 310 45 358 345 272 44 316 39 177 352 87 51 7 61 304 148 322 330 338 12 289 289 357 316 11 11 32 61 333 2 352 2 28 16 58 29 35 307 273 219 308 287 264 179 278 225 246 292 227 225 262 242 246 241 248 254 267 288 296 311 315 314
33 52 65 18 68 67 128 117 144 141 68 39 68 37 43 61 231 124 284 238 311 353 29 10 341 1 39 78 321 351 21 189 31 339 39 6 49 30 339 9 28 5 78 11 48 355 20 345 333 16 17 350 54 88 127 214 329 304 191 75 142 137 112 314 248 348 252 253 286 275 27 246 9 229 201 217 261 285 257 257 262 255 256 266 279 284 305 323
66 61 91 19 53 36 55 56 97 109 82 65 53 82 106 225 223 184 246 274 281 319 227 301 22 50 346 23 327 322 134 314 39 24 19 46 6 42 355 335 342 57 212 81 280 83 201 232 274 279 252 348 45 316 124 106 69 236 156 116 54 346 158 45 215 176 295 338 329 331 214 181 189 232 275 304 300 269 286 292 321 309 300 292 327 342 326 320
352 325 55 21 33 321 87 83 84 71 81 61 74 43 79 179 152 160 115 156 45 134 260 25 70 62 316 315 310 49 309 101 324 74 4 58 232 56 284 252 354 1 14 87 295 1 16 323 285 318 354 59 5 339 9 275 32 292 60 22 202 172 100 90 86 89 60 58 261 223 314 296 292 350 311 346 7 229 341 316 336 312 325 341 354 326 321 312
29 327 35 338 12 338 302 89 104 79 65 90 91 81 197 278 207 177 345 169 238 140 69 148 314 87 348 321 281 336 299 48 335 80 354 6 9 39 2 347 200 10 51 129 20 177 62 276 312 47 326 43 232 113 6 0 61 45 46 237 95 118 123 118 249 330 60 95 263 31 266 310 18 302 319 324 328 275 285 284 291 296 296 355 328 319 307 304
63 56 114 32 297 354 45 158 83 46 78 79 65 139 299 100 273 186 226 69 81 43 95 97 226 54 247 88 341 344 317 79 327 49 178 348 117 190 27 6 22 110 347 329 108 308 94 341 304 344 238 291 3 45 333 355 342 101 133 169 63 329 0 332 88 9 350 340 297 312 284 251 197 257 334 278 235 263 275 287 316 305 329 321 314 312 311 309
60 79 316 290 309 9 254 85 69 70 63 61 180 105 244 81 272 143 249 202 141 163 90 225 132 323 133 97 260 254 326 60 338 64 56 337 63 148 83 164 344 206 341 8 72 244 31 165 296 317 126 324 348 70 254 305 336 23 40 17 1 99 147 22 81 170 120 279 18 295 25 273 205 229 191 244 233 249 275 309 268 263 271 286 297 301 300 304
27 19 310 280 310 30 164 78 66 43 60 109 191 111 214 99 197 294 347 15 319 69 201 124 254 114 309 217 141 16 336 75 67 305 94 310 82 39 21 15 179 327 19 2 120 310 225 107 265 274 314 340 321 12 124 143 295 338 28 344 356 49 229 98 87 127 170 176 182 277 326 283 263 214 181 227 232 233 220 252 268 266 274 283 285 283 289 294
75 96 270 311 311 276 39 45 44 36 89 225 77 150 22 171 204 350 11 11 85 319 190 162 161 118 192 112 294 299 27 39 12 39 143 309 154 336 50 95 214 339 316 21 52 7 76 32 219 316 352 19 232 151 263 176 180 200 150 139 166 31 22 35 281 14 74 90 233 106 270 278 277 177 207 220 249 247 249 227 260 270 274 282 287 293 284 287
71 29 287 338 303 100 86 51 24 246 92 91 80 124 75 101 65 331 11 344 43 133 18 109 41 112 109 73 143 162 116 45 2 57 263 134 258 134 2 36 147 272 83 33 2 259 134 150 77 292 211 252 280 316 301 223 148 184 141 210 137 118 111 100 206 280 5 249 106 156 246 273 246 243 226 239 240 228 244 206 249 270 278 284 283 279 283 264
55 209 254 34 331 88 65 76 0 50 55 231 298 336 345 23 113 254 69 332 43 186 25 61 105 67 320 133 218 82 210 217 160 19 195 251 263 221 317 72 215 4 94 335 15 303 85 57 347 273 306 312 338 327 328 61 103 27 302 82 124 225 185 185 175 169 156 303 128 0 237 252 279 262 253 262 259 264 265 219 246 273 282 284 284 289 290 296
173 259 331 258 82 112 75 145 68 17 1 297 78 132 312 169 118 32 55 305 120 353 120 147 14 26 135 48 97 139 252 94 242 124 310 158 295 85 15 44 303 96 71 186 130 264 18 302 106 316 353 334 343 348 353 334 50 192 195 212 151 86 76 135 103 37 303 217 173 136 235 275 266 293 280 308 318 303 285 257 209 265 278 278 284 286 285 284
118 295 237 304 1 52 123 172 129 143 175 135 108 75 19 25 67 158 155 174 16 138 115 7 3 150 55 94 86 93 9 78 246 1 55 206 244 10 359 47 343 106 73 264 1 275 101 224 89 45 31 355 331 332 320 314 253 227 217 116 238 129 133 120 250 15 199 274 135 186 253 252 266 288 309 302 297 289 275 279 281 237 264 285 293 290 290 293
61 145 304 347 17 39 66 47 102 131 135 154 84 250 116 73 23 336 122 29 176 66 48 129 22 93 102 88 59 23 20 320 79 258 44 267 273 350 280 339 53 118 229 91 60 74 150 55 187 163 161 206 222 239 214 66 0 252 236 166 211 188 171 104 94 114 211 206 197 237 218 294 300 289 284 279 265 267 288 294 286 295 278 256 253 271 280 284
175 74 342 334 344 51 74 26 72 82 162 180 110 172 107 124 254 1 125 30 319 105 29 42 188 136 231 94 192 61 232 314 353 115 231 200 261 256 337 57 328 40 355 162 23 84 69 316 250 209 246 247 262 273 275 29 278 275 267 251 199 182 171 161 174 221 163 89 280 239 235 225 261 277 291 298 296 288 271 270 289 295 296 296 294 294 292 292
176 242 96 209 128 313 50 2 88 88 55 74 95 58 149 122 77 145 352 63 12 326 98 317 60 269 170 168 147 138 35 277 47 228 319 249 341 340 19 9 61 319 342 14 343 126 139 196 277 137 255 258 268 272 277 280 248 258 254 254 232 204 184 204 227 202 149 192 236 209 140 207 267 273 282 284 278 284 292 292 288 283 284 286 291 292 291 288
97 149 127 287 122 272 104 189 100 115 80 89 113 91 158 162 191 208 162 65 17 292 165 264 255 220 197 201 128 118 158 35 308 243 192 214 209 61 330 1 148 6 72 35 18 157 95 246 237 188 277 273 267 262 265 245 268 266 248 245 238 215 215 217 235 209 201 235 250 273 277 274 274 279 279 275 283 283 284 289 292 288 278 282 291 287 283 282
228 127 238 15 87 116 287 61 86 81 80 353 110 239 158 180 182 193 316 132 109 279 83 189 250 61 163 161 141 131 215 179 189 277 222 125 318 169 236 200 167 0 40 157 79 316 110 279 63 287 311 279 272 307 224 220 224 270 260 230 235 226 232 230 238 244 230 263 259 258 270 276 273 260 267 280 281 285 285 276 271 273 278 277 277 277 278 279
158 149 151 114 56 330 38 17 81 103 99 321 97 211 124 194 216 181 184 179 148 179 183 206 169 107 74 133 199 251 232 191 172 19 184 164 283 217 147 292 126 143 96 83 19 322 1 259 56 61 349 296 344 32 311 281 257 248 279 268 228 206 224 222 208 216 187 228 241 240 260 256 262 277 256 262 278 275 269 274 271 271 273 271 264 270 276 280
71 336 83 105 87 307 88 45 1 77 271 227 153 194 186 223 195 165 134 138 101 160 188 160 174 107 68 131 237 226 218 187 191 248 178 141 100 87 57 113 120 156 173 154 217 150 170 132 18 14 346 266 255 299 298 298 307 312 263 239 200 203 203 304 258 238 216 194 184 212 235 231 262 307 310 281 262 276 275 263 273 274 255 252 264 270 272 275